Weather History for Alva, OK

Change the Weather History Date:

Monday, January 21, 2013

  Actual Average Record
Temperature  
Mean Temperature 28 °F -  
Max Temperature 39 °F 48 °F 72 °F (1964)
Min Temperature 17 °F 26 °F 3 °F (1954)
Degree Days  
Heating Degree Days 37    
Moisture  
Dew Point 12 °F    
Average Humidity 54    
Maximum Humidity 73    
Minimum Humidity 31    
Precipitation  
Precipitation 0.00 in - - ()
Sea Level Pressure  
Sea Level Pressure 30.35 in    
Wind  
Wind Speed 8 mph (East)    
Max Wind Speed 13 mph    
Max Gust Speed -    
Visibility 10 miles    
Events      
Averages and records for this station are not official NWS values.
T = Trace of Precipitation, MM = Missing Value Source: NWS Daily Summary

Daily Weather History Graph

Daily Weather History Graph

Search for Another Location

Airport:

Trip Planner

Search our weather history database for the weather conditions in past years. The results will help you decide how hot, cold, wet, or windy it might be!

Date:

Astronomy

Jan. 21, 2013 Rise Set
Actual Time 7:43 AM CST 5:48 PM CST
Civil Twilight 7:15 AM CST 6:16 PM CST
Nautical Twilight 6:44 AM CST 6:48 PM CST
Astronomical Twilight 6:13 AM CST 7:18 PM CST
Moon 1:30 PM CST 3:13 AM CST
Length of Visible Light 11h 00m
Length of Day
10h 04m
Waxing Gibbous, 75% of the Moon is Illuminated
Jan 21
Waxing Gibbous
Jan 26
Full
Feb 3
Last Quarter
Feb 10
New
Feb 17
First Quarter

Hourly Weather History & Observations

Time (CST) Temp. Windchill Dew Point Humidity Pressure Visibility Wind Dir Wind Speed Gust Speed Precip Events Conditions
12:10 AM 26.6 °F 16.8 °F 14.0 °F 59% 30.37 in 10.0 mi NNE 10.4 mph - N/A   Partly Cloudy
12:30 AM 26.6 °F 19.1 °F 14.0 °F 59% 30.37 in 10.0 mi NNE 6.9 mph - N/A   Partly Cloudy
12:50 AM 26.6 °F 16.2 °F 14.0 °F 59% 30.37 in 10.0 mi NNE 11.5 mph - N/A   Clear
1:10 AM 26.6 °F 16.2 °F 14.0 °F 59% 30.37 in 10.0 mi NNE 11.5 mph - N/A   Partly Cloudy
1:30 AM 24.8 °F 13.4 °F 14.0 °F 64% 30.38 in 10.0 mi NNE 12.7 mph - N/A   Partly Cloudy
1:50 AM 24.8 °F 15.3 °F 14.0 °F 64% 30.39 in 10.0 mi NNE 9.2 mph - N/A   Partly Cloudy
2:10 AM 24.8 °F 14.0 °F 14.0 °F 64% 30.38 in 10.0 mi NNE 11.5 mph - N/A   Clear
2:30 AM 24.8 °F 15.3 °F 14.0 °F 64% 30.40 in 10.0 mi NNE 9.2 mph - N/A   Clear
2:50 AM 23.0 °F 11.7 °F 14.0 °F 68% 30.40 in 10.0 mi NNE 11.5 mph - N/A   Clear
3:10 AM 23.0 °F 11.7 °F 14.0 °F 68% 30.40 in 10.0 mi NNE 11.5 mph - N/A   Clear
3:50 AM 23.0 °F 13.1 °F 12.2 °F 63% 30.40 in 10.0 mi NNE 9.2 mph - N/A   Clear
4:10 AM 23.0 °F 13.9 °F 12.2 °F 63% 30.40 in 10.0 mi NNE 8.1 mph - N/A   Clear
4:30 AM 21.2 °F 11.7 °F 12.2 °F 68% 30.39 in 10.0 mi NNE 8.1 mph - N/A   Clear
4:50 AM 21.2 °F 12.6 °F 10.4 °F 63% 30.39 in 10.0 mi NNE 6.9 mph - N/A   Clear
5:10 AM 19.4 °F 10.4 °F 10.4 °F 68% 30.39 in 10.0 mi North 6.9 mph - N/A   Clear
5:30 AM 19.4 °F 9.5 °F 10.4 °F 68% 30.39 in 10.0 mi North 8.1 mph - N/A   Clear
5:50 AM 19.4 °F 10.4 °F 10.4 °F 68% 30.39 in 10.0 mi North 6.9 mph - N/A   Clear
6:10 AM 17.6 °F 7.3 °F 10.4 °F 73% 30.40 in 10.0 mi North 8.1 mph - N/A   Clear
6:30 AM 17.6 °F 8.2 °F 10.4 °F 73% 30.40 in 10.0 mi North 6.9 mph - N/A   Clear
6:50 AM 17.6 °F 6.4 °F 10.4 °F 73% 30.40 in 10.0 mi North 9.2 mph - N/A   Clear
7:10 AM 17.6 °F 6.4 °F 10.4 °F 73% 30.40 in 10.0 mi North 9.2 mph - N/A   Clear
7:30 AM 17.6 °F 8.2 °F 10.4 °F 73% 30.41 in 10.0 mi North 6.9 mph - N/A   Clear
7:50 AM 17.6 °F 9.3 °F 10.4 °F 73% 30.40 in 10.0 mi North 5.8 mph - N/A   Clear
8:10 AM 17.6 °F 8.2 °F 10.4 °F 73% 30.42 in 10.0 mi North 6.9 mph - N/A   Clear
8:30 AM 19.4 °F 10.4 °F 10.4 °F 68% 30.43 in 10.0 mi North 6.9 mph - N/A   Clear
8:50 AM 23.0 °F 15.8 °F 10.4 °F 59% 30.43 in 10.0 mi NNW 5.8 mph - N/A   Clear
9:10 AM 24.8 °F 19.1 °F 10.4 °F 54% 30.43 in 10.0 mi North 4.6 mph - N/A   Clear
9:30 AM 24.8 °F 19.1 °F 10.4 °F 54% 30.44 in 10.0 mi NNE 4.6 mph - N/A   Clear
9:50 AM 26.6 °F 21.2 °F 10.4 °F 51% 30.44 in 10.0 mi NNE 4.6 mph - N/A   Clear
10:10 AM 26.6 °F 21.2 °F 10.4 °F 51% 30.45 in 10.0 mi North 4.6 mph - N/A   Clear
10:30 AM 26.6 °F - 10.4 °F 51% 30.45 in 10.0 mi Calm Calm - N/A   Clear
10:50 AM 28.4 °F - 10.4 °F 47% 30.45 in 10.0 mi Calm Calm - N/A   Clear
11:10 AM 30.2 °F 26.7 °F 10.4 °F 44% 30.44 in 10.0 mi NNE 3.5 mph - N/A   Clear
11:30 AM 30.2 °F - 8.6 °F 40% 30.43 in 10.0 mi Calm Calm - N/A   Clear
11:50 AM 32.0 °F 28.7 °F 10.4 °F 41% 30.42 in 10.0 mi South 3.5 mph - N/A   Clear
12:10 PM 32.0 °F 26.4 °F 10.4 °F 41% 30.40 in 10.0 mi SSW 5.8 mph - N/A   Clear
12:30 PM 32.0 °F 28.7 °F 10.4 °F 41% 30.39 in 10.0 mi ESE 3.5 mph - N/A   Clear
12:50 PM 32.0 °F 27.5 °F 10.4 °F 41% 30.37 in 10.0 mi SW 4.6 mph - N/A   Clear
1:10 PM 33.8 °F 26.4 °F 10.4 °F 38% 30.34 in 10.0 mi South 9.2 mph - N/A   Clear
1:30 PM 35.6 °F 29.2 °F 10.4 °F 35% 30.33 in 10.0 mi South 8.1 mph - N/A   Clear
1:50 PM 35.6 °F 32.8 °F 10.4 °F 35% 30.33 in 10.0 mi South 3.5 mph - N/A   Clear
2:10 PM 35.6 °F 30.7 °F 10.4 °F 35% 30.32 in 10.0 mi South 5.8 mph - N/A   Clear
2:50 PM 37.4 °F 32.8 °F 10.4 °F 33% 30.30 in 10.0 mi South 5.8 mph - N/A   Clear
3:10 PM 37.4 °F 31.4 °F 10.4 °F 33% 30.29 in 10.0 mi South 8.1 mph - N/A   Clear
3:30 PM 39.2 °F 35.0 °F 12.2 °F 33% 30.28 in 10.0 mi South 5.8 mph - N/A   Clear
3:50 PM 39.2 °F 35.9 °F 10.4 °F 31% 30.28 in 10.0 mi SSW 4.6 mph - N/A   Clear
4:10 PM 39.2 °F 33.6 °F 10.4 °F 31% 30.27 in 10.0 mi South 8.1 mph - N/A   Clear
4:30 PM 39.2 °F 33.6 °F 10.4 °F 31% 30.26 in 10.0 mi SE 8.1 mph - N/A   Clear
4:50 PM 37.4 °F 31.4 °F 10.4 °F 33% 30.25 in 10.0 mi SE 8.1 mph - N/A   Clear
5:10 PM 37.4 °F 31.4 °F 12.2 °F 36% 30.25 in 10.0 mi SE 8.1 mph - N/A   Clear
5:30 PM 35.6 °F 29.2 °F 12.2 °F 38% 30.24 in 10.0 mi SE 8.1 mph - N/A   Clear
5:50 PM 33.8 °F 25.8 °F 14.0 °F 44% 30.24 in 10.0 mi SSE 10.4 mph - N/A   Clear
6:10 PM 32.0 °F 24.8 °F 14.0 °F 48% 30.24 in 10.0 mi SE 8.1 mph - N/A   Clear
6:50 PM 32.0 °F 24.8 °F 14.0 °F 48% 30.25 in 10.0 mi SE 8.1 mph - N/A   Overcast
7:10 PM 30.2 °F 24.3 °F 14.0 °F 51% 30.26 in 10.0 mi SE 5.8 mph - N/A   Overcast
7:30 PM 28.4 °F 21.2 °F 14.0 °F 55% 30.26 in 10.0 mi ESE 6.9 mph - N/A   Overcast
7:50 PM 28.4 °F 21.2 °F 14.0 °F 55% 30.27 in 10.0 mi ESE 6.9 mph - N/A   Mostly Cloudy
8:30 PM 28.4 °F 19.7 °F 12.2 °F 51% 30.26 in 10.0 mi ESE 9.2 mph - N/A   Mostly Cloudy
8:50 PM 28.4 °F 19.1 °F 12.2 °F 51% 30.26 in 10.0 mi SE 10.4 mph - N/A   Scattered Clouds
9:10 PM 28.4 °F 21.2 °F 12.2 °F 51% 30.27 in 10.0 mi ESE 6.9 mph - N/A   Partly Cloudy
9:30 PM 26.6 °F 18.2 °F 12.2 °F 55% 30.26 in 10.0 mi SE 8.1 mph - N/A   Partly Cloudy
9:50 PM 26.6 °F 17.5 °F 14.0 °F 59% 30.25 in 10.0 mi SSE 9.2 mph - N/A   Clear
10:10 PM 24.8 °F 16.9 °F 14.0 °F 64% 30.25 in 10.0 mi SE 6.9 mph - N/A   Partly Cloudy
10:30 PM 24.8 °F 16.9 °F 14.0 °F 64% 30.26 in 10.0 mi ESE 6.9 mph - N/A   Clear
10:50 PM 24.8 °F 16.1 °F 14.0 °F 64% 30.26 in 10.0 mi SE 8.1 mph - N/A   Partly Cloudy
11:10 PM 26.6 °F 18.2 °F 14.0 °F 59% 30.26 in 10.0 mi SE 8.1 mph - N/A   Scattered Clouds
11:30 PM 26.6 °F 18.2 °F 14.0 °F 59% 30.26 in 10.0 mi SE 8.1 mph - N/A   Scattered Clouds
11:50 PM 24.8 °F 16.9 °F 14.0 °F 64% 30.26 in 10.0 mi SE 6.9 mph - N/A   Mostly Cloudy